Bookmark and Share
Track history (hours):
 

Mar Maria

Last reported at 2014-Apr-16 12:29 UTC. Time now 2014-Apr-16 19:14 UTC.
Position N 43°24' E 004°60'.

Length 103 m; draft 5.8 m.

Type: Tanker. MMSI: 256435000.

NotesDate/timePositionNaut miles runAvg speedWind from/ knotsBaromVisibWave heightAir tempDewpointWater temp
2014-Apr-16 12:29N 43°24' E 004°60'3 2.6
2014-Apr-16 11:32N 43°25' E 004°57'0 0.1
2014-Apr-16 10:32N 43°25' E 004°57'0 0.0
2014-Apr-16 09:32N 43°25' E 004°57'0 0.0
2014-Apr-16 08:32N 43°25' E 004°57'0 0.0
2014-Apr-16 07:32N 43°25' E 004°57'0 0.0
2014-Apr-16 06:32N 43°25' E 004°57'0 0.0
2014-Apr-16 05:32N 43°25' E 004°57'0 0.0
2014-Apr-16 04:32N 43°25' E 004°57'0 0.0
2014-Apr-16 03:32N 43°25' E 004°57'0 0.0
2014-Apr-16 02:32N 43°25' E 004°57'0 0.0
2014-Apr-16 01:29N 43°25' E 004°57'0 0.0
2014-Apr-16 00:32N 43°25' E 004°57'0 0.0
2014-Apr-15 23:32N 43°25' E 004°57'0 0.0
2014-Apr-15 22:32N 43°25' E 004°57'0 0.0
2014-Apr-15 21:32N 43°25' E 004°57'0 0.0
2014-Apr-15 20:32N 43°25' E 004°57'0 0.0
2014-Apr-15 19:32N 43°25' E 004°57'0 0.0
2014-Apr-15 18:32N 43°25' E 004°57'0 0.0
2014-Apr-15 17:32N 43°25' E 004°57'0 0.0
2014-Apr-15 16:32N 43°25' E 004°57'0 0.0
2014-Apr-15 15:32N 43°25' E 004°57'0 0.0
2014-Apr-15 14:32N 43°25' E 004°57'0 0.0
2014-Apr-15 12:33N 43°25' E 004°57'0 0.0
2014-Apr-15 11:34N 43°25' E 004°57'8 7.6
2014-Apr-15 10:34N 43°17' E 004°60'1211.8
2014-Apr-15 09:33N 43°06' E 004°55'1110.9
2014-Apr-15 08:32N 42°57' E 004°45'2010.2
2014-Apr-15 06:32N 42°42' E 004°27'6911.5
2014-Apr-15 00:33N 41°51' E 003°25'1211.9
2014-Apr-14 23:33N 41°42' E 003°15'1313.0
2014-Apr-14 22:34N 41°31' E 003°05'1211.6
2014-Apr-14 21:33N 41°22' E 002°56'1212.0
2014-Apr-14 20:33N 41°12' E 002°47'1312.6
2014-Apr-14 19:34N 41°02' E 002°37'1212.2
2014-Apr-14 18:34N 40°52' E 002°28'1212.4
2014-Apr-14 17:34N 40°42' E 002°18'1313.0
2014-Apr-14 16:33N 40°31' E 002°08'1212.1
2014-Apr-14 15:34N 40°21' E 001°59'1211.8
2014-Apr-14 14:33N 40°11' E 001°50'1212.4
2014-Apr-14 13:34N 40°01' E 001°41'2512.6
2014-Apr-14 11:33N 39°41' E 001°21'2512.6
2014-Apr-14 09:34N 39°20' E 001°03'1313.3
2014-Apr-14 08:33N 39°09' E 000°53'33611.8
2014-Apr-13 04:09N 36°02' W 004°58'812.8
2014-Apr-13 03:33N 36°00' W 005°07'1514.7
2014-Apr-13 02:34N 35°58' W 005°25'1413.5
2014-Apr-13 01:32N 35°54' W 005°42'1313.2
2014-Apr-13 00:32N 35°53' W 005°58'145 2.8
2014-Apr-10 21:17N 33°45' W 007°22'  
2014-Apr-07 20:26N 36°12' W 009°21'1112.5
2014-Apr-07 19:33N 36°21' W 009°29'2412.1
2014-Apr-07 17:33N 36°41' W 009°47'1212.1
2014-Apr-07 16:33N 36°51' W 009°55'1212.2
2014-Apr-07 15:33N 37°03' W 009°55'1312.5
2014-Apr-07 14:33N 37°15' W 009°55'1212.5
2014-Apr-07 13:33N 37°28' W 009°57'1212.2
2014-Apr-07 12:33N 37°40' W 009°60'1212.0
2014-Apr-07 11:33N 37°52' W 010°02'1212.1
2014-Apr-07 10:33N 38°04' W 010°03'  

Dump ship's entire track history

sailing weather and tide predictions

Mar Maria — 9HA2859 — position and weather